Pueblo, CO

7:28 AM MST on December 03, 2016 (GMT -0700)
Pueblo Memorial

Weather History for KPUB - January, 2013

Change the Weather History Date:

Saturday, January 5, 2013

  Actual Average Record
Temperature  
Mean Temperature 28 °F 30 °F  
Max Temperature 47 °F 47 °F 74 °F (1927)
Min Temperature 8 °F 14 °F -21 °F (1942)
Degree Days  
Heating Degree Days 37 35  
Month to date heating degree days 210 175  
Since 1 July heating degree days 2432 2538  
Cooling Degree Days 0 0  
Month to date cooling degree days 0 0  
Year to date cooling degree days 0 0  
Moisture  
Dew Point 4 °F    
Average Humidity 44    
Maximum Humidity 64    
Minimum Humidity 23    
Precipitation  
Precipitation 0.00 in 0.02 in 0.15 in (2007)
Month to date precipitation 0.01 0.06  
Year to date precipitation 0.01 0.06  
Snow  
Snow 0.00 in 0.20 in 3.60 in (2007)
Month to date snowfall T 1.0  
Since 1 July snowfall 5.6 12.5  
Snow Depth 0.00 in    
Sea Level Pressure  
Sea Level Pressure 30.30 in    
Wind  
Wind Speed 5 mph (SW)    
Max Wind Speed 15 mph    
Max Gust Speed 20 mph    
Visibility 10 miles    
Events      
T = Trace of Precipitation, MM = Missing Value Source: NWS Daily Summary

Daily Weather History Graph

Daily Weather History Graph

Search for Another Location

Airport or City:

Trip Planner

Search our weather history database for the weather conditions in past years. The results will help you decide how hot, cold, wet, or windy it might be!

Date:

Astronomy

Jan. 05, 2013 Rise Set
Actual Time 7:15 AM MST 4:52 PM MST
Civil Twilight 6:45 AM MST 5:21 PM MST
Nautical Twilight 6:12 AM MST 5:54 PM MST
Astronomical Twilight 5:40 AM MST 6:26 PM MST
Moon 12:27 AM MST (1/5) 11:40 AM MST (1/5)
Length of Visible Light 10h 35m
Length of Day
9h 37m
Last Quarter, 43% of the Moon is Illuminated
Jan 5
Last Quarter
Jan 11
New
Jan 18
First Quarter
Jan 26
Full
Feb 3
Last Quarter

Hourly Weather History & Observations

Time (MST) Temp. Windchill Dew Point Humidity Pressure Visibility Wind Dir Wind Speed Gust Speed Precip Events Conditions
12:53 AM 12.0 °F 5.9 °F -7.1 °F 42% 30.07 in 10.0 mi WSW 3.5 mph - N/A   Clear
1:53 AM 12.0 °F 4.1 °F -7.1 °F 42% 30.09 in 10.0 mi Variable 4.6 mph - N/A   Clear
2:53 AM 12.0 °F 2.7 °F -5.1 °F 46% 30.11 in 10.0 mi West 5.8 mph - N/A   Clear
3:53 AM 12.0 °F 4.1 °F -2.0 °F 53% 30.12 in 10.0 mi Variable 4.6 mph - N/A   Clear
4:53 AM 10.9 °F 1.4 °F -4.0 °F 51% 30.16 in 10.0 mi West 5.8 mph - N/A   Clear
5:53 AM 10.9 °F 4.7 °F -2.0 °F 56% 30.23 in 10.0 mi WNW 3.5 mph - N/A   Clear
6:53 AM 12.0 °F -0.4 °F 1.0 °F 61% 30.27 in 10.0 mi NW 9.2 mph - N/A   Clear
7:53 AM 14.0 °F 8.2 °F 3.0 °F 62% 30.32 in 10.0 mi WSW 3.5 mph - N/A   Clear
8:53 AM 21.0 °F - 5.0 °F 50% 30.35 in 10.0 mi Calm Calm - N/A   Clear
9:53 AM 28.9 °F 22.8 °F 5.0 °F 36% 30.36 in 10.0 mi SW 5.8 mph - N/A   Clear
10:53 AM 37.9 °F 35.5 °F 9.0 °F 30% 30.32 in 10.0 mi Variable 3.5 mph - N/A   Clear
11:53 AM 44.1 °F 38.6 °F 12.0 °F 27% 30.28 in 10.0 mi ENE 10.4 mph - N/A   Clear
12:53 PM 46.0 °F 41.4 °F 12.0 °F 25% 30.27 in 10.0 mi East 9.2 mph - N/A   Clear
1:53 PM 46.9 °F - 10.9 °F 23% 30.26 in 10.0 mi ESE 6.9 mph - N/A   Clear
2:53 PM 46.9 °F - 10.0 °F 22% 30.27 in 10.0 mi South 6.9 mph - N/A   Clear
3:53 PM 46.4 °F 42.4 °F 10.4 °F 23% 30.23 in 10.0 mi SE 8.1 mph - N/A   Clear
4:53 PM 39.9 °F 35.1 °F 10.9 °F 31% 30.35 in 10.0 mi SE 6.9 mph - N/A   Clear
5:53 PM 30.0 °F 25.2 °F 8.1 °F 40% 30.42 in 10.0 mi ENE 4.6 mph - N/A   Clear
6:53 PM 26.1 °F 20.5 °F 6.1 °F 43% 30.45 in 10.0 mi NE 4.6 mph - N/A   Clear
7:53 PM 19.9 °F - 3.9 °F 50% 30.48 in 10.0 mi Calm Calm - N/A   Clear
8:53 PM 19.0 °F 13.9 °F 3.0 °F 50% 30.47 in 10.0 mi NW 3.5 mph - N/A   Clear
9:53 PM 19.9 °F 12.1 °F 6.1 °F 55% 30.43 in 10.0 mi West 5.8 mph - N/A   Clear
10:53 PM 17.1 °F 6.6 °F 3.9 °F 56% 30.42 in 10.0 mi WSW 8.1 mph - N/A   Clear
11:53 PM 12.9 °F 6.9 °F 3.0 °F 65% 30.40 in 10.0 mi East 3.5 mph - N/A   Clear